Location: Hoyos del Collado
(40.3594°N, 5.2003°W)
Time: 11:50:49
(UTC+00:00)

Okean 2 Rocket - Pass Details

Date: 18 April 2024
Orbit: 613 x 639 km, 82.5° (Epoch: 21 May)

Event Time Altitude Azimuth Distance (km) Brightness Sun altitude
Exits shadow 20:17:41 10° 167° (SSE) 2,060 5.4 -14.0°
Reaches altitude 10° 20:17:47 10° 167° (SSE) 2,023 5.3 -14.0°
Maximum altitude 20:22:06 48° 93° (E) 833 3.3 -14.7°
Drops below altitude 10° 20:26:27 10° 19° (NNE) 2,032 5.8 -15.4°
Sets 20:28:44 0° 14° (NNE) 2,943 6.8 -15.8°
